Simultaneous Nadir Overpasses (SNOs) Predictions

Prediction of SNOs between LANDSAT-8 and NOAA-19 Satellite Orbit:

Table of predicted SNOs for the next 14.0 days since TLE Epoch: 9/24/2016
Index Date (LANDSAT-8) Time (LANDSAT-8) Lat,Lon (LANDSAT-8) SZA (LANDSAT-8 ) Date (NOAA-19) Time (NOAA-19) Lat,Lon (NOAA-19) SZA (NOAA-19 ) Distance(km) Time Diff (sec)
1 09/26/2016 03:26:55 75.10, 134.08 76.55 09/26/2016 03:26:44 75.10, 134.20 76.55 3.48 11
2 09/26/2016 04:16:30 -74.72, -59.26 103.86 09/26/2016 04:17:39 -74.70, -57.39 103.79 54.96 69
3 09/28/2016 08:11:02 75.61, 64.44 77.98 09/28/2016 08:09:55 75.65, 61.72 77.91 75.03 67
4 09/28/2016 09:00:40 -75.09,-129.37 102.59 09/28/2016 09:00:46 -75.10,-129.26 102.58 3.18 6
5 09/30/2016 13:44:56 -75.16, 159.73 101.66 09/30/2016 13:43:46 -75.17, 159.81 101.65 2.85 70
6 09/30/2016 14:34:22 75.13, -32.70 78.33 09/30/2016 14:34:44 75.11, -32.73 78.31 2.75 22
7 10/02/2016 19:18:38 75.19,-103.60 79.25 10/02/2016 19:17:44 75.16,-103.59 79.22 3.17 54
8 10/02/2016 20:08:07 -75.12, 63.85 100.81 10/02/2016 20:08:45 -75.12, 63.79 100.81 1.91 38
9 10/05/2016 00:52:23 -75.18, -7.06 99.89 10/05/2016 00:51:45 -75.20, -7.16 99.88 3.39 38
10 10/05/2016 01:41:50 75.10, 160.36 80.04 10/05/2016 01:42:43 75.09, 160.44 80.03 2.82 53
11 10/07/2016 06:26:06 75.16, 89.44 80.94 10/07/2016 06:25:43 75.15, 89.56 80.94 3.44 23




NCC Satellite Simultaneous Nadir Overpasses (SNOs) Prediction Service
